[TLELIST] Archives

 

[list_settings.list_name] Current TLEs

April 7th 2011 PST

HST 1 20580U 90037B 11097.18782763 .00001628 00000-0 11100-3 0 7423 2 20580 028.4681 120.2080 0003163 099.6331 260.4775 15.01261249948972 ISS (ZARYA) 1 25544U 98067A 11097.37224576 -.00028496 00000-0 -20173-3 0 1465 2 25544 051.6442 164.3404 0002749 086.2746 354.9705 15.72872013709758 CXO 1 25867U 99040B 11097.54166667 .00000254 00000-0 00000+0 0 5894 2 25867 068.8787 036.4395 8544038 276.3134 353.0241 00.37801627 7506 ____________________________________________________________________ These 2-Line ...Continue Reading

[list_settings.list_name] Current TLEs

April 6th 2011 PST

HST 1 20580U 90037B 11096.19063293 .00001762 00000-0 12115-3 0 7418 2 20580 028.4694 126.7274 0003212 080.2314 279.8866 15.01258270948823 ISS (ZARYA) 1 25544U 98067A 11096.35703382 .00039353 00000-0 28799-3 0 1395 2 25544 051.6466 169.5456 0003001 095.2893 353.6726 15.72788545709590 CXO 1 25867U 99040B 11097.54166667 .00000254 00000-0 00000+0 0 5894 2 25867 068.8787 036.4395 8544038 276.3134 353.0241 00.37801627 7506 ____________________________________________________________________ These 2-Line ...Continue Reading

[list_settings.list_name] Current TLEs

April 5th 2011 PST

HST 1 20580U 90037B 11094.19622810 .00001540 00000-0 10435-3 0 7408 2 20580 028.4699 139.7548 0003048 060.6799 299.4236 15.01250390948523 ISS (ZARYA) 1 25544U 98067A 11095.47171269 .00055689 00000-0 40629-3 0 1330 2 25544 051.6485 174.0786 0002406 089.1836 023.7898 15.72708822709455 CXO 1 25867U 99040B 11094.87500000 .00000258 00000-0 00000+0 0 5883 2 25867 068.8636 036.6032 8543952 276.3217 349.9331 00.37806261 7496 ____________________________________________________________________ These 2-Line ...Continue Reading

[list_settings.list_name] Current TLEs

April 4th 2011 PST

HST 1 20580U 90037B 11094.19622810 .00001540 00000-0 10435-3 0 7408 2 20580 028.4699 139.7548 0003048 060.6799 299.4236 15.01250390948523 ISS (ZARYA) 1 25544U 98067A 11094.51999760 .00048242 00000-0 35464-3 0 1279 2 25544 051.6478 178.9557 0002434 076.3149 044.8272 15.72590607709306 CXO 1 25867U 99040B 11094.87500000 .00000258 00000-0 00000+0 0 5883 2 25867 068.8636 036.6032 8543952 276.3217 349.9331 00.37806261 7496 ____________________________________________________________________ These 2-Line ...Continue Reading

[list_settings.list_name] Current TLEs

April 3rd 2011 PST

HST 1 20580U 90037B 11093.19902206 .00001396 00000-0 93394-4 0 7390 2 20580 028.4694 146.2670 0003076 047.1977 312.8962 15.01246372948370 ISS (ZARYA) 1 25544U 98067A 11093.51569444 .00037941 00000-0 28180-3 0 1204 2 25544 051.6460 184.1017 0002466 083.3638 108.4316 15.72456934709145 CXO 1 25867U 99040B 11094.87500000 .00000258 00000-0 00000+0 0 5883 2 25867 068.8636 036.6032 8543952 276.3217 349.9331 00.37806261 7496 ____________________________________________________________________ These 2-Line ...Continue Reading

[list_settings.list_name] Current TLEs

April 3rd 2011 PST

HST 1 20580U 90037B 11092.20181684 .00001296 00000-0 85800-4 0 7381 2 20580 028.4694 152.7777 0003084 036.0443 324.0622 15.01243048948223 ISS (ZARYA) 1 25544U 98067A 11092.49597222 .00046899 00000-0 34842-3 0 1131 2 25544 051.6464 189.3088 0002710 049.1866 126.3734 15.72353585708981 CXO 1 25867U 99040B 11092.25000000 .00000265 00000-0 00000+0 0 5875 2 25867 068.8442 036.7851 8544021 276.3028 352.5901 00.37809059 7489 ____________________________________________________________________ These 2-Line ...Continue Reading

[list_settings.list_name] Current TLEs

April 2nd 2011 PST

HST 1 20580U 90037B 11089.34313701 .00001099 00000-0 70816-4 0 7370 2 20580 028.4694 171.4456 0003146 006.2292 353.8428 15.01235407947790 ISS (ZARYA) 1 25544U 98067A 11091.46542383 .00034416 00000-0 25545-3 0 1081 2 25544 051.6458 194.5991 0001531 059.8729 037.8505 15.72522754708822 CXO 1 25867U 99040B 11092.25000000 .00000265 00000-0 00000+0 0 5875 2 25867 068.8442 036.7851 8544021 276.3028 352.5901 00.37809059 7489 ____________________________________________________________________ These 2-Line ...Continue Reading

[list_settings.list_name] Current TLEs

April 1st 2011 PST

HST 1 20580U 90037B 11089.34313701 .00001099 00000-0 70816-4 0 7370 2 20580 028.4694 171.4456 0003146 006.2292 353.8428 15.01235407947790 ISS (ZARYA) 1 25544U 98067A 11090.51407258 .00028043 00000-0 20985-3 0 1045 2 25544 051.6444 199.4762 0001759 037.5758 070.9222 15.72443057708679 CXO 1 25867U 99040B 11092.25000000 .00000265 00000-0 00000+0 0 5875 2 25867 068.8442 036.7851 8544021 276.3028 352.5901 00.37809059 7489 ____________________________________________________________________ These 2-Line ...Continue Reading

[list_settings.list_name] Current TLEs

March 31st 2011 PST

HST 1 20580U 90037B 11089.34313701 .00001099 00000-0 70816-4 0 7370 2 20580 028.4694 171.4456 0003146 006.2292 353.8428 15.01235407947790 ISS (ZARYA) 1 25544U 98067A 11089.36098190 .00035499 00000-0 26489-3 0 976 2 25544 051.6459 205.3771 0001798 056.1390 000.7216 15.72381642708499 CXO 1 25867U 99040B 11089.62500000 .00000230 00000-0 00000+0 0 5868 2 25867 068.8267 036.9431 8542337 276.2817 355.2868 00.37807139 7471 ____________________________________________________________________ These 2-Line ...Continue Reading

[list_settings.list_name] Current TLEs

March 30th 2011 PST

HST 1 20580U 90037B 11086.68389026 .00001052 00000-0 67275-4 0 7360 2 20580 028.4702 188.8101 0003225 339.6807 020.3762 15.01230235947399 ISS (ZARYA) 1 25544U 98067A 11088.15384590 .00008602 00000-0 68083-4 0 900 2 25544 051.6395 211.5735 0002254 041.5692 017.7946 15.72291445708307 CXO 1 25867U 99040B 11087.00000000 .00000084 00000-0 00000+0 0 5859 2 25867 068.8119 037.0733 8540543 276.2679 358.0091 00.37805853 7466 ____________________________________________________________________ These 2-Line ...Continue Reading
  • This mailing list is a public mailing list - anyone may join or leave, at any time.
  • This mailing list is announce-only.

International Space Station (ISS) / Hubble Space Telescope (HST) / Chandra X-Ray Observatory Orbital Data via EMAIL

Privacy Policy:

Private list